Погода в Фейсалабаде

Пакистан     31°27′42″N   73°04′22″E
темп.,
°C
ветер,
м/с
пор.,
м/с
влажн.,
%
обл.,
%
осадки,
мм/ч
давл.,
гПа
погр.,
м
22 января, сб
сб2223:00+14в2468100 0.0 1010111
02:00+13в377398 0.2 1008149
05:00+12в378881 1.0 1007298
08:00+12всв378964 0.7 1008259
11:00+14вюв357381 0.8 1009805
14:00+16в445898 0.3 1006978
17:00+14юв137599 0.8 1006309
20:00+12всв238482 0.1 1008165
23 января, вс
вс2323:00+11всв238798 0.1 1009131
02:00+10св239398 0.0 1009108
05:00+11ссв479186 0.0 1009464
08:00+11ссв4787100 0.0 1011430
11:00+13ссв457397 0.0 1013649
14:00+14с446597 0.0 1011963
17:00+13с457597 0.0 1012559
20:00+10ссз23917 0.0 1014100
24 января, пн
пн2423:00+10сз239535 0.0 101486
02:00+9с249740 0.0 101499
05:00+10ссз249450 0.0 1014113
08:00+10с359366 0.0 1016191
11:00+15ссв346852 0.1 1017829
14:00+17ссв335318 0.5 10141371
17:00+16с345738 0.6 1014149
20:00+12с23770 0.1 101645
25 января, вт
вт2523:00+11с11800 0.1 101616
02:00+10ссз22830 0.0 101621
05:00+9ссз22830 0.0 101533
08:00+10ссз11760 0.0 101639
11:00+17сз23460 0.0 1017855
14:00+19сз22364 0.0 10141893
17:00+17сз344134 0.0 1013131
20:00+13сз23520 0.0 101548
26 января, ср
ср2623:00+11сз34530 0.0 101662
02:00+10ссз22550 0.0 101535
05:00+9сз22590 0.0 101524
08:00+10з22570 0.0 101639
11:00+17з22350 0.0 1016781
14:00+20зсз33260 0.0 10142090
17:00+18сз34310 0.0 1013152
20:00+13сз22430 0.0 101527